www.pogodaiklimat.ru

Погода и климат >> Архив погоды >> Бангладеш >> Джессор


ПОГОДА в Джессоре

  • Прогноз погоды в Джессоре
  • Монитор погоды в Джессоре

АРХИВ ПОГОДЫ в Джессоре

Время (UTC), дата Ветер
(напр.,м/с)
 
Видим.   Явления Облачность Т
(С)
Тd
(С)
f
(%)
Тe
(С)
Тes
(С)
Комфортность P
(гПа)
Po
(гПа)
Тmin
(С)
Tmax
(С)
R
(мм)
R24
(мм)
S
(см)
12 14.04 0 н/о
15 14.04 штиль 0 5000 м мгла ясно +30.2 +25.0 74 +44 +44 опасность
перегрева
1006.5 1005.8
18 14.04 штиль 0 5000 м мгла 4/3
[Sc Ac trans]
+29.0 +25.0 79 +42 +42 опасность
перегрева
1006.8 1006.1
03 15.04 Ю 3 2000 м мгла 6/5
[Cu Sc Ac trans]
+29.0 +25.0 79 +42 +46 опасность
перегрева
1007.8 1007.1 +25.6
06 15.04 ЮЗ 3 3000 м мгла 6/5
[St]
+33.0 +26.0 67 +49 +57 опасность
перегрева
1008.5 1007.8
09 15.04 ЮЗ 3 5000 м 3/3 300 м
[St As trans]
+35.0 +27.0 63 +53 +59 опасность
перегрева
1005.7 1005.1
12 15.04 Ю 2 5000 м мгла 3/0
[Ac trans]
+33.0 +26.0 67 +49 +49 опасность
перегрева
1004.1 1003.5 +35.2
18 15.04 ЮВ 2 4000 м мгла 5/3
[Sc Ac trans]
+27.6 +24.0 81 +38 +38 очень
душно
1006.9 1006.2
00 16.04 штиль 0 1400 м мгла 1/0
[Ac trans]
+26.4 +25.0 92 +38 +38 очень
душно
1006.3 1005.6
03 16.04 Ю 2 2000 м мгла 8/5
[St Ac trans]
+29.2 +25.0 78 +42 +46 опасность
перегрева
1009.1 1008.4 +26.2
06 16.04 ЮВ 3 3000 м мгла 6/5
[St Ac trans]
+34.0 +26.0 63 +50 +57 опасность
перегрева
1008.1 1007.4
09 16.04 ЮЗ 3 4000 м мгла 5/4
[Cu Sc Ac trans]
+35.2 +27.0 63 +53 +59 опасность
перегрева
1005.9 1005.2
15 16.04 СЗ 8 3000 м гроза без осадков 9/6
[Cb calv Ac trans]
+30.4 +27.0 82 +48 +48 опасность
перегрева
1009.4 1008.7
18 16.04 ЮЗ 3 3000 м мгла {гроза, дождь} 9/4 <50 м
[St Ac trans]
+25.0 +22.0 83 +32 +32 очень
душно
1008.9 1008.1 4
03 17.04 Ю 2 4000 м {туман} ясно +28.0 +22.4 72 +37 +49 очень
душно
1011.3 1010.6
06 17.04 ЮЗ 3 5000 м мгла ясно +34.0 +24.0 56 +46 +63 опасность
перегрева
1010.8 1010.1
09 17.04 ЮЗ 3 4000 м мгла ясно +30.6 +12.0 32 +31 +41 жарко 1011.5 1010.8
12 17.04 С 3 4000 м мгла 5/4
[St Ac trans]
+32.2 +23.0 58 +42 +42 опасность
перегрева
1009.2 1008.5 +35.8
00 18.04 штиль 0 1000 м мгла ясно +23.2 +22.0 93 +32 +32 очень
душно
1009.4 1008.7
03 18.04 штиль 0 4000 м мгла ясно +27.6 +21.0 67 +35 +50 очень
душно
1011.4 1010.7 +22.8
06 18.04 СЗ 6 5000 м мгла ясно +32.6 +19.0 45 +38 +46 очень
душно
1012.3 1011.6
09 18.04 З 3 5000 м мгла ясно +34.2 +19.0 41 +39 +49 очень
душно
1009.0 1008.3
12 18.04 В 3 5000 м мгла ясно +32.4 +18.0 42 +37 +37 очень
душно
1007.7 1007.0 +34.6
15 18.04 Ю 2 5000 м мгла ясно +26.6 +22.0 76 +34 +34 очень
душно
1008.9 1008.2
18 18.04 штиль 0 5000 м мгла ясно +24.6 +22.0 85 +32 +32 очень
душно
1008.6 1007.9
03 19.04 З 2 1200 м мгла 8/5
[St Ac trans]
+27.6 +21.0 67 +35 +39 очень
душно
1009.6 1008.9 +23.0
06 19.04 З 3 4000 м мгла 5/1
[Sc Ac trans]
+32.2 +18.0 43 +37 +48 очень
душно
1009.5 1008.8
09 19.04 З 2 4000 м мгла 5/4
[Cu Sc Ac trans]
+33.0 +19.0 44 +38 +45 очень
душно
1007.3 1006.6
12 19.04 ЮЗ 2 3000 м мгла 8/5
[St Ac trans]
+30.0 +23.0 66 +40 +40 очень
душно
1006.5 1005.8 +33.2
18 19.04 штиль 0 3000 м мгла 3/0
[Ac trans]
+27.2 +22.0 73 +35 +35 очень
душно
1008.1 1007.4
00 20.04 штиль 0 1200 м мгла 4/1
[Sc Ac trans]
+22.4 +21.0 92 +29 +29 очень
душно
1007.3 1006.5
03 20.04 З 3 3000 м мгла 6/3 <50 м
[Sc Ac trans]
+28.0 +22.0 70 +36 +41 очень
душно
1009.2 1008.5 +21.6
09 20.04 С 2 6000 м мгла ясно +35.6 +22.0 45 +44 +57 опасность
перегрева
1005.2 1004.5
12 20.04 ЮЗ 2 6000 м мгла ясно +31.8 +23.0 60 +42 +42 опасность
перегрева
1003.9 1003.3 +36.2
18 20.04 штиль 0 5000 м мгла ясно +28.6 +24.0 76 +40 +40 очень
душно
1005.9 1005.2
00 21.04 штиль 0 600 м туман ясно +24.0 +23.0 94 +32 +32 очень
душно
1005.7 1004.9
03 21.04 ЮЗ 2 1600 м мгла ясно +30.0 +25.0 75 +43 +56 опасность
перегрева
1007.5 1006.8 +23.8
06 21.04 ЮЗ 3 4000 м мгла ясно +35.2 +23.0 49 +45 +63 опасность
перегрева
1007.3 1006.6
09 21.04 ЮЗ 3 5000 м мгла 4/0
[Ac trans]
+36.4 +22.0 43 +44 +52 опасность
перегрева
1007.7 1004.1

 

Местоположение метеостанции Джессор (Бангладеш): широта 23.18 долгота 89.17 высота над уровнем моря 7 м.

В архиве по умолчанию представлена погода в Джессоре за последнюю неделю. Архивные данные за месяц целиком и за предыдущие месяцы, начиная с января 2011 года, Вы можете получить, выбрав интересующий диапазон дат из раскрывающегося списка и нажав кнопку "Ввод!".


*Определитесь, кто Вы:
робот инопланетянин человек

Внимание! Время в таблицах - всемирное. Для получения местного времени необходимо прибавить поправку, которая равна 6.5 ч.

Смотрите также архив погоды в соседних городах и на ближайших метеорологических станциях:

Погода в Кумархали (Бангладеш) (38 км)
Погода в Саткхире (Бангладеш) (52 км)
Погода в Кхулне (Бангладеш) (58 км)
Погода в Чуаданге (Бангладеш) (63 км)
Погода в Бейсирхэте (Западная Бенгалия, Индия) (66 км)
Погода в Гопалгандж-Садаре (Бангладеш) (69 км)
Погода в Кришнанагаре (Западная Бенгалия, Индия) (71 км)
Погода в Монгле (Бангладеш) (73 км)
Погода в Фаридпуре (Бангладеш) (84 км)
Погода в Багати (Западная Бенгалия, Индия) (85 км)

Пояснения к столбцам:

Ветер - указаны скорость ветра в м/с - средняя за 10 мин, порывы в срок и между сроками (в фигурных скобках) и направление, откуда дует ветер: С - северный, СВ - северо-восточный, В - восточный, ЮВ - юго-восточный, Ю - южный, ЮЗ - юго-западный, З - западный, СЗ - северо-западный.
Видимость - горизонтальная дальность видимости в метрах или километрах. При видимости от 1 до 10 км при отсутствии осадков обычно наблюдается дымка, при ухудшении видимости до 1 км и менее - туман. В сухую погоду видимость может ухудшаться дымом, пылью или мглою.
Явления - указаны атмосферные явления, наблюдавшиеся в срок или в последний час перед сроком; фигурными скобками обозначены явления, наблюдавшиеся между сроками (за 1-3 часа до срока); квадратными скобками обозначены град или гололедные отложения с указанием их диаметра в мм.
Облачность - указаны через наклонную черту общая и нижняя облачность в баллах и высота нижней границы облаков в метрах; квадратными скобками обозначены формы облаков: Ci - перистые, Cs - перисто-слоистые, Cc - перисто-кучевые, Ac - высококучевые, As - высокослоистые, Sc - слоисто-кучевые, Ns - слоисто-дождевые, Cu - кучевые, Cb - кучево-дождевые. Подробнее классификацию облаков см. в Атласе облаков (PDF).
T - Температура воздуха - температура, измеренная на высоте 2 м над землей.
Td - Температура точки росы - температура, при понижении до которой содержащийся в воздухе водяной пар достигнет насыщения.
f - Относительная влажность воздуха - влажноcть воздуха, измеренная на высоте 2 м над землей.
Te - Эффективная температура - температура, которую ощущает одетый по сезону человек в тени. Характеристика душности погоды. При расчете учитывается влияние влажности воздуха и скорости ветра на теплоощущения человека.
Tes - Эффективная температура на солнце - температура, которую ощущает человек, с поправкой на солнечный нагрев. Характеристика знойности погоды. Зависит от высоты солнца над горизонтом, облачности и скорости ветра. Ночью, в пасмурную погоду, а также при ветре 12 м/с и более поправка равна нулю.
P - Атмосферное давление - приведенное к уровню моря атмосферное давление.
Po - Атмосферное давление - измеренное на уровне метеостанции атмосферное давление.
Tmin - Минимальная температура - минимум температуры воздуха на высоте 2 м над землей.
Tmax - Максимальная температура - максимум температуры воздуха на высоте 2 м над землей.
R - Количество осадков - Количество выпавших осадков за период времени, мм. При наведении курсора мыши на число - период времени, за который выпало указанное количество осадков.
R24 - Количество осадков - Количество выпавших осадков за 24 часа, мм.
S - Снежный покров - Высота снежного покрова, см. При наведении курсора мыши на число - состояние снежного покрова и степень покрытия местности в баллах.